Regional Weather Roundup
Issued by NWS Charleston, SC

Current Version | Previous Version | Text Only | Print | Product List | Glossary Off
Versions: 1 2 3 4 5 6 7 8 9 10 11 12 13 14 15 16 17 18 19 20 21 22 23 24 25 26 27 28 29 30 31 32 33 34 35 36 37 38 39 40 41 42 43 44 45 46 47 48 49 50

000
ASUS42 KCHS 171812
RWRCHS

REGIONAL WEATHER ROUNDUP
NATIONAL WEATHER SERVICE CHARLESTON SC
200 PM EDT TUE OCT 17 2017

NOTE: "FAIR" INDICATES FEW OR NO CLOUDS BELOW 12,000 FEET WITH NO
SIGNIFICANT WEATHER AND/OR OBSTRUCTIONS TO VISIBILITY.

NOT ALL STATIONS ARE QUALITY CONTROLLED. USE DATA WITH CAUTION...
ESPECIALLY DEWPOINT OBSERVATIONS.

SCZ027-030-031-034>040-042>050-171900-
...SOUTHEAST SOUTH CAROLINA...

CITY           SKY/WX    TMP DP  RH WIND       PRES   REMARKS
N CHARLESTON   CLOUDY    64  46  52 NE18      30.25F
6HR MIN TEMP:  54; 6HR MAX TEMP:  65;

WATERFRONT PRK   N/A     61  51  70 N15G22    30.11F
JOHNS ISLAND   FAIR      61  46  59 N14G21    30.25F
PINOPOLIS        N/A     63  46  55 NE14      30.19F
MONCKS CORNER  FAIR      64  36  34 NE15      30.26F
SUMMERVILLE    FAIR      64  39  39 NE9G24    30.27F
BEAUFORT MCAS  PTSUNNY   68  46  45 NE14G21   30.24F
6HR MIN TEMP:  57; 6HR MAX TEMP:  69;

BEAUFORT ARPT  FAIR      64  46  52 NE17G26   30.24F
HILTON HEAD IS PTSUNNY   61  46  59 NE17G24   30.25F
WALTERBORO     CLEAR     66  37  34 NE12      30.27F
ALLENDALE      NOT AVBL

...SOUTHERN MIDLANDS AND PEE DEE...

CITY           SKY/WX    TMP DP  RH WIND       PRES   REMARKS
GEORGETOWN     FAIR      59  45  58 N13       30.28F
KINGSTREE      FAIR      66  37  34 NE9       30.28F
ORANGEBURG     SUNNY     67  35  30 N13G20    30.28F
6HR MIN TEMP:  50; 6HR MAX TEMP:  68;

BARNWELL         N/A     68  39  34 NE16      30.27F
AIKEN          FAIR      64  37  36 N13G18    30.33F
MANNING        HAZE      64  43  45 MISG      30.28F VSB 1/4
COLUMBIA       MOSUNNY   68  38  33 VRB7      30.29F
6HR MIN TEMP:  50; 6HR MAX TEMP:  68;

SUMTER         MOSUNNY   67  35  30 NE14G23   30.27F
6HR MIN TEMP:  48; 6HR MAX TEMP:  67;

FLORENCE       SUNNY     66  38  35 NE16      30.30F
6HR MIN TEMP:  48; 6HR MAX TEMP:  66;

MYRTLE BEACH   PTSUNNY   61  47  59 N20       30.27F
N MYRTLE BEACH CLOUDY    61  47  59 N15G21    30.25F
6HR MIN TEMP:  54; 6HR MAX TEMP:  61;


$$

GAZ063-065-086>088-099>101-113>116-118-119-134>141-150-171900-
...SOUTHEAST GEORGIA...

CITY           SKY/WX    TMP DP  RH WIND       PRES   REMARKS
SAVANNAH ARPT  CLOUDY    68  47  46 NE12      30.24F
6HR MIN TEMP:  56; 6HR MAX TEMP:  69;

HUNTER AAF     MOSUNNY   64  47  54 NE14G21   30.21F
6HR MIN TEMP:  57; 6HR MAX TEMP:  65;

FORT STEWART   CLOUDY    69  49  48 N14       30.21F
6HR MIN TEMP:  56; 6HR MAX TEMP:  69;

STATESBORO     SUNNY     69  33  26 NE9G16    30.25F
SYLVANIA       CLEAR     69  44  39 E10G18    30.27F
CLAXTON        FAIR      70  42  35 N13G21    30.25F

...CSRA...CENTRAL AND FAR SOUTHEAST GEORGIA...

CITY           SKY/WX    TMP DP  RH WIND       PRES   REMARKS
THOMSON        SUNNY     66  39  37 E7G17     30.34F
AUGUSTA-BUSH   SUNNY     72  39  30 NE14      30.28F
6HR MIN TEMP:  50; 6HR MAX TEMP:  72;

AUGUSTA-DANIEL SUNNY     69  37  30 NE13G21   30.29F
SWAINSBORO     FAIR      68  39  34 MISG      30.26F
VIDALIA        SUNNY     72  43  35 NE12G17   30.25F
EASTMAN        FAIR      72  14  11 NE13      30.27F
HAZLEHURST     FAIR      70  16  12 NE9G17    30.23F
ALMA           SUNNY     70  45  40 VRB7G16   30.22F
6HR MIN TEMP:  57; 6HR MAX TEMP:  71;

WAYCROSS       CLOUDY    70  47  44 E14       30.22F
JESUP          NOT AVBL
BAXLEY         FAIR      68  43  40 NE9G18    30.22F
BRUNSWICK      CLOUDY    64  52  63 N14       30.21F
SAINT SIMONS   CLOUDY    66  56  70 N21G28    30.19F
6HR MIN TEMP:  66; 6HR MAX TEMP:  69;


$$

SCZ027-028-034-036>038-045-046-048>050-GAZ119-141-171900-
...LAKE AND SUPPLEMENTAL COASTAL OBSERVATIONS...

STATION/POSITION TIME  TEMP    WIND        PRES    WAVE   SWELL
                       AIR SEA DIR/SP/G            HT/PER HT/PER/DIR
                 (UTC) (F)     (DEG/KT/KT) (MB)    (FT/S) (FT/S/D)
WINYAH BAY       NOT AVBL
LAKE MURRAY      1720   64      30/  4/  8 1025.7
ACE BASIN NERRS  1645   59      10/  5     1025.0
FORT PULASKI     1742   61 77   30/ 15/ 20 1024.2F
SAPELO ISLAND    1700   65      20/ 15     1023.0

$$

ANZ835-935-AMZ111-154-330-350-352-354-370-450-454-472-171900-
...C-MAN AND BUOY OBSERVATIONS...

STATION/POSITION TIME  TEMP    WIND        PRES    WAVE   SWELL
                       AIR SEA DIR/SP/G            HT/PER HT/PER/DIR
                 (UTC) (F)     (DEG/KT/KT) (MB)    (FT/S) (FT/S/D)
BUOY 41004       1750   68 80   20/ 25/ 31 1021.7F   9/ 8   3/120/11
BUOY 41008       1650   67 78   30/ 25/ 29 1022.0    7/ 6   2/ 90/11
FOLLY BEACH CMAN 1700   61      10/ 20/ 22 1025.0F
CAPERS NEARSHORE 1708   60 76   20/ 19/ 27 1023.8F
FRIPP NEARSHORE  1708   62      30/ 19/ 25   N/A


STATION/POSITION TIME  TEMP    WIND        PRES    WAVE   SWELL
                       AIR SEA DIR/SP/G            HT/PER HT/PER/DIR
                 (UTC) (F)     (DEG/KT/KT) (MB)    (FT/S) (FT/S/D)
5E ST. MARYS GA  1730      79                N/A     8/ 6   2/100/11
FRYING PAN BUOY  1750   67 77   30/ 23/ 29 1022.4F   8/ 7   3/120/11
BUOY 41025       1750   63 81   10/ 21/ 25 1023.5S   8/11   5/ 80/11
CAPE LOOKOUT NC  1700   63      20/ 18/ 25 1024.2F
BUOY 41002       1650   77 78   40/ 21/ 25 1017.1   12/10   8/ 40/10
BUOY 41010       NOT AVBL
ST AUGUSTINE FL  1800   74 80   20/ 27/ 29 1019.4F


$$




USA.gov is the U.S. government's official web portal to all federal, state and local government web resources and services.